Hourly Data Report for October 14, 2021

MANIWAKI AIRPORT
QUEBEC
Current Station Operator: ECCC - MSC

46°16'29.000" N
75°59'31.000" W
199.70 m
7034482
71721
WMJ

Download Data

Hourly Data (October 2021)
Hourly Data Report for October 14, 2021
TIME
LST
Temp Definition
°C
Dew Point Definition
°C
Rel Hum Definition
%
Precip. Amount Definition
mm

Wind Dir Definition
10's deg

Wind Spd Definition
km/h
Visibility Definition
km
Stn Press Definition
kPa
Hmdx Definition


Wind Chill Definition


Weather Definition


00:00 16.2 16.1 100 0.0 30 3   98.96     LegendNANA
01:00 15.9 15.9 100 0.0 0 1   98.95     LegendNANA
02:00 15.9 15.8 100 0.0   0   98.96     LegendNANA
03:00 16.1 16.0 100 0.0 33 3   98.99     LegendNANA
04:00 16.0 15.9 99 0.0 28 4   99.03     LegendNANA
05:00 15.9 15.8 99 0.0 27 3   99.05     LegendNANA
06:00 16.0 15.8 99 0.0 28 2   99.07     LegendNANA
07:00 16.1 15.9 99 0.0 5 2   99.05     LegendNANA
08:00 16.7 16.2 97 0.0 33 1   99.09     LegendNANA
09:00 17.0 16.0 94 0.0 36 2   99.11     LegendNANA
10:00 17.4 16.1 92 0.0 1 3   99.12     LegendNANA
11:00 18.2 15.9 86 0.0 5 1   99.10     LegendNANA
12:00 18.0 16.2 89 0.0 17 5   99.04     LegendNANA
13:00 18.6 16.2 86 0.0 16 6   99.01     LegendNANA
14:00 19.7 16.1 80 0.0 12 7   98.96     LegendNANA
15:00 19.6 16.2 81 0.0 13 8   98.92     LegendNANA
16:00 19.4 16.2 82 0.0 16 6   98.91     LegendNANA
17:00 18.7 16.3 86 0.0 13 4   98.89     LegendNANA
18:00 17.1 16.2 95 0.0 15 2   98.90     LegendNANA
19:00 16.6 15.6 94 0.0 23 2   98.85     LegendNANA
20:00 15.5 15.3 98 0.0 0 1   98.88     LegendNANA
21:00 15.3 14.9 97 0.0   0   98.87     LegendNANA
22:00 16.1 15.6 97 0.0 21 4   98.86     LegendNANA
23:00 16.1 15.4 96 0.0 17 5   98.79     LegendNANA

Notes on Data Quality.

Legend

  • E = Estimated
  • M = Missing
  • NA = Not Available*
  • [empty] = Indicates an unobserved value
Date modified: